www.pogodaiklimat.ru

Погода и климат >> Архив погоды >> Австралия >> Западная Австралия >> Уорбертон


ПОГОДА в Уорбертоне

  • Прогноз погоды в Уорбертоне
  • Монитор погоды в Уорбертоне

АРХИВ ПОГОДЫ в Уорбертоне

Время (UTC), дата Ветер
(напр.,м/с)
 
Видим.   Явления Облачность Т
(С)
Тd
(С)
f
(%)
Тe
(С)
Тes
(С)
Комфортность P
(гПа)
Po
(гПа)
Тmin
(С)
Tmax
(С)
R
(мм)
R24
(мм)
S
(см)
10 15.01 СВ 5 н/о н/о +43.0 +4.9 10 +40 +40 очень
жарко
1001.6 951.6
13 15.01 Ю 4 н/о н/о +38.1 +9.6 18 +37 +37 очень
жарко
1004.6 954.5 +47.3
16 15.01 З 2 н/о н/о +34.5 +9.7 22 +33 +33 жарко 1003.2 953.2
19 15.01 В 2 н/о н/о +30.8 +9.6 27 +30 +30 жарко 1002.3 952.3
22 15.01 Ю 2 н/о н/о +31.6 +10.3 27 +31 +31 жарко 1003.8 953.7
01 16.01 В 2 н/о н/о +40.2 +7.6 14 +38 +38 очень
жарко
1003.9 953.8 +29.0
04 16.01 СЗ 6 н/о н/о +44.5 +6.0 10 +42 +42 опасность
перегрева
1001.7 951.7
07 16.01 З 5 н/о н/о +44.0 +5.6 10 +41 +41 опасность
перегрева
999.9 950.0
10 16.01 З 11 н/о н/о +35.8 +13.9 27 +37 +37 душно 1000.8 950.9
13 16.01 З 5 н/о н/о +33.5 +15.0 33 +35 +35 душно 1007.3 957.1 +45.4
16 16.01 Ю 5 н/о н/о +33.3 +13.4 30 +34 +34 очень
жарко
1005.5 955.3
19 16.01 ЮВ 6 н/о н/о +32.6 +12.8 30 +33 +33 жарко 1004.1 954.0
22 16.01 В 5 н/о н/о +31.7 +11.0 28 +32 +32 жарко 1005.3 955.2
01 17.01 В 3 н/о н/о +35.9 +9.4 20 +35 +35 очень
жарко
1007.5 957.2 +31.8
04 17.01 ЮЗ 5 н/о н/о +41.3 +9.5 15 +40 +40 очень
жарко
1004.3 954.2
07 17.01 З 6 н/о н/о +40.3 +10.5 17 +39 +39 очень
жарко
1002.4 952.4
10 17.01 штиль 0 н/о н/о +39.4 +8.9 16 +38 +38 очень
жарко
1001.6 951.6
13 17.01 Ю 4 н/о н/о +34.7 +13.5 28 +35 +35 очень
жарко
1004.3 954.2 +42.7
16 17.01 ЮЗ 1 н/о н/о +31.9 +13.6 33 +33 +33 жарко 1004.1 954.0
19 17.01 В 3 н/о н/о +31.4 +13.6 34 +33 +33 жарко 1003.6 953.5
22 17.01 СВ 4 н/о н/о +30.9 +14.1 36 +33 +33 душно 1006.2 956.0
01 18.01 В 6 н/о н/о +34.1 +13.5 29 +35 +35 очень
жарко
1008.1 957.8 +30.8
04 18.01 В 7 н/о н/о +34.7 +13.5 28 +35 +35 очень
жарко
1008.3 958.0
07 18.01 В 6 н/о н/о +36.1 +11.7 23 +36 +36 очень
жарко
1006.4 956.2
10 18.01 ЮВ 6 н/о н/о +32.6 +14.7 34 +34 +34 очень
жарко
1008.7 958.4
13 18.01 Ю 8 н/о н/о +24.9 +16.1 58 +28 +28 жарко 1013.9 963.3 +37.7
16 18.01 Ю 4 н/о н/о +22.9 +18.0 74 +28 +28 душно 1014.0 963.4
19 18.01 ЮВ 5 н/о н/о +23.9 +16.9 65 +28 +28 душно 1012.0 961.5
22 18.01 ЮВ 6 н/о н/о +25.2 +15.8 56 +28 +28 жарко 1013.6 963.0
01 19.01 ЮВ 9 н/о н/о +25.4 +13.3 47 +27 +27 жарко 1014.5 963.9 +22.8
04 19.01 ЮВ 8 н/о н/о +26.8 +15.8 51 +30 +30 душно 1013.8 963.2
07 19.01 ЮВ 8 н/о н/о +28.0 +15.0 45 +31 +31 душно 1012.3 961.8
10 19.01 ЮВ 7 н/о н/о +28.0 +15.0 45 +31 +31 душно 1012.3 961.8
13 19.01 ЮВ 6 н/о н/о +25.4 +14.5 51 +28 +28 жарко 1013.8 963.2 +29.6
16 19.01 В 5 н/о н/о +23.5 +13.4 53 +26 +26 жарко 1013.0 962.5
19 19.01 ЮВ 5 н/о н/о +22.8 +12.4 52 +26 +26 жарко 1011.7 961.2
22 19.01 ЮВ 7 н/о н/о +23.2 +11.3 47 +25 +25 комфорт 1012.5 962.0
01 20.01 В 6 н/о н/о +30.2 +12.6 34 +31 +31 жарко 1012.6 962.1 +22.3
04 20.01 В 6 н/о н/о +37.9 +14.5 25 +39 +39 очень
душно
1010.1 959.7
07 20.01 В 4 н/о н/о +39.2 +14.3 23 +40 +40 очень
душно
1007.8 957.5
10 20.01 В 6 н/о н/о +36.1 +11.7 23 +36 +36 очень
жарко
1008.6 958.3
13 20.01 В 8 н/о н/о +30.5 +12.9 34 +32 +32 жарко 1010.4 960.0 +41.3
16 20.01 ЮВ 6 н/о н/о +26.9 +15.9 51 +30 +30 душно 1010.2 959.8
19 20.01 ЮВ 5 н/о н/о +25.5 +15.5 54 +29 +29 душно 1009.0 958.7
22 20.01 ЮВ 6 н/о н/о +25.4 +16.0 56 +29 +29 душно 1009.1 958.8
01 21.01 ЮВ 5 н/о н/о +31.9 +14.1 34 +33 +33 жарко 1009.1 958.8 +24.8
04 21.01 СВ 5 н/о н/о +39.9 +10.2 17 +38 +38 очень
жарко
1006.3 956.1
07 21.01 СВ 3 н/о н/о +44.4 +5.9 10 +42 +42 опасность
перегрева
1002.9 952.9
10 21.01 Ю 4 н/о н/о +40.0 +9.4 16 +38 +38 очень
жарко
1002.5 952.5
13 21.01 ЮЗ 1 н/о н/о +36.3 +9.0 19 +35 +35 очень
жарко
1005.8 955.6 +45.4
16 21.01 В 5 н/о н/о +34.5 +10.4 23 +34 +34 очень
жарко
1004.8 954.7
19 21.01 В 6 н/о н/о +33.6 +10.9 25 +33 +33 жарко 1003.8 953.7
22 21.01 СВ 5 н/о н/о +34.1 +10.0 23 +33 +33 жарко 1004.3 954.2
01 22.01 СВ 8 н/о н/о +40.6 +7.9 14 +38 +38 очень
жарко
1004.2 954.1 +29.0
04 22.01 С 5 н/о н/о +42.1 +5.6 11 +39 +39 очень
жарко
1002.7 952.7
07 22.01 С 4 н/о н/о +42.2 +4.3 10 +39 +39 очень
жарко
1000.7 950.8

 

Местоположение метеостанции Уорбертон (Западная Австралия, Австралия): широта -26.13 долгота 126.58 высота над уровнем моря 460 м.

В архиве по умолчанию представлена погода в Уорбертоне за последнюю неделю. Архивные данные за месяц целиком и за предыдущие месяцы, начиная с января 2011 года, Вы можете получить, выбрав интересующий диапазон дат из раскрывающегося списка и нажав кнопку "Ввод!".


*Определитесь, кто Вы:
робот инопланетянин человек

Внимание! Время в таблицах - всемирное. Для получения местного времени необходимо прибавить поправку, которая равна 8 ч.

Смотрите также архив погоды в соседних городах и на ближайших метеорологических станциях:

Погода в Джайлсе (Западная Австралия, Австралия) (212 км)
Погода в Кинторе (Северная территория, Австралия) (425 км)
Погода в Юларе (Северная территория, Австралия) (453 км)
Погода в Лавертоне (Западная Австралия, Австралия) (496 км)
Погода в Форресте (Западная Австралия, Австралия) (544 км)
Погода в Эрнабелле (Южная Австралия, Австралия) (559 км)
Погода в Леоноре (Западная Австралия, Австралия) (602 км)
Погода в Леинстере (Западная Австралия, Австралия) (613 км)
Погода в Евкле (Западная Австралия, Австралия) (657 км)
Погода в Телфере (Западная Австралия, Австралия) (663 км)

Пояснения к столбцам:

Ветер - указаны скорость ветра в м/с - средняя за 10 мин, порывы в срок и между сроками (в фигурных скобках) и направление, откуда дует ветер: С - северный, СВ - северо-восточный, В - восточный, ЮВ - юго-восточный, Ю - южный, ЮЗ - юго-западный, З - западный, СЗ - северо-западный.
Видимость - горизонтальная дальность видимости в метрах или километрах. При видимости от 1 до 10 км при отсутствии осадков обычно наблюдается дымка, при ухудшении видимости до 1 км и менее - туман. В сухую погоду видимость может ухудшаться дымом, пылью или мглою.
Явления - указаны атмосферные явления, наблюдавшиеся в срок или в последний час перед сроком; фигурными скобками обозначены явления, наблюдавшиеся между сроками (за 1-3 часа до срока); квадратными скобками обозначены град или гололедные отложения с указанием их диаметра в мм.
Облачность - указаны через наклонную черту общая и нижняя облачность в баллах и высота нижней границы облаков в метрах; квадратными скобками обозначены формы облаков: Ci - перистые, Cs - перисто-слоистые, Cc - перисто-кучевые, Ac - высококучевые, As - высокослоистые, Sc - слоисто-кучевые, Ns - слоисто-дождевые, Cu - кучевые, Cb - кучево-дождевые. Подробнее классификацию облаков см. в Атласе облаков (PDF).
T - Температура воздуха - температура, измеренная на высоте 2 м над землей.
Td - Температура точки росы - температура, при понижении до которой содержащийся в воздухе водяной пар достигнет насыщения.
f - Относительная влажность воздуха - влажноcть воздуха, измеренная на высоте 2 м над землей.
Te - Эффективная температура - температура, которую ощущает одетый по сезону человек в тени. Характеристика душности погоды. При расчете учитывается влияние влажности воздуха и скорости ветра на теплоощущения человека.
Tes - Эффективная температура на солнце - температура, которую ощущает человек, с поправкой на солнечный нагрев. Характеристика знойности погоды. Зависит от высоты солнца над горизонтом, облачности и скорости ветра. Ночью, в пасмурную погоду, а также при ветре 12 м/с и более поправка равна нулю.
P - Атмосферное давление - приведенное к уровню моря атмосферное давление.
Po - Атмосферное давление - измеренное на уровне метеостанции атмосферное давление.
Tmin - Минимальная температура - минимум температуры воздуха на высоте 2 м над землей.
Tmax - Максимальная температура - максимум температуры воздуха на высоте 2 м над землей.
R - Количество осадков - Количество выпавших осадков за период времени, мм. При наведении курсора мыши на число - период времени, за который выпало указанное количество осадков.
R24 - Количество осадков - Количество выпавших осадков за 24 часа, мм.
S - Снежный покров - Высота снежного покрова, см. При наведении курсора мыши на число - состояние снежного покрова и степень покрытия местности в баллах.